SCP
0 0 0 0 0 0 0 0 0 0 0 0 0 0 0 0 0 0 0 0 0 0 0 -0 -0 -0 -0 -0 -0 -0 -0 -0 -0 -0 -0 -0 -0 -0 0 0 0 0 0
-0 -0 0 0 0 0 0 0 0 0 0 0 0 0 0 0 0 0 0 0 0 0 -0 -0 -0 -0 -0 -0 -0 -0 0 0 0 -0 -0 -0 -0 -0 0 0 -0 0 0
-0 -0 -0 0 0 0 0 0 0 0 0 0 0 0 0 0 0 0 0 0 0 0 -0 -0 0 -0 -0 -0 0 -0 -0 -0 -0 -0 -0 0 0 -0 0 -0 -0 0 0
-0 -0 -0 -0 -0 0 -0 0 0 0 0 0 0 0 0 0 0 0 0 0 0 0 -0 -0 0 -0 -0 0 -0 -0 -0 -0 -0 0 0 -0 -0 0 0 0 -0 -0 0
0 0 -0 0 -0 0 -0 -0 0 0 0 0 0 0 0 -0 0 0 0 0 -0 -0 -0 -0 -0 -0 -0 -0 -0 -0 -0 -0 0 -0 -0 -0 0 0 0 0 -0 -0 0
-0 0 -0 -0 -0 -0 -0 0 0 0 -0 -0 0 -0 0 0 0 0 0 0 -0 -0 -0 -0 -0 -0 0 -0 -0 -0 -0 -0 -0 0 0 -0 -0 0 0 0 -0 -0 -0
0 0 -0 0 0 -0 -0 -0 -0 -0 0 -0 -0 -0 -0 -0 0 0 0 0 0 -0 0 0 0 -0 0 -0 -0 -0 -0 -0 0 0 0 0 -0 0 0 0 -0 -0 -0
0 0 -0 -0 0 0 0 0 -0 -0 -0 -0 0 -0 0 0 -0 0 0 0 0 0 0 0 0 -0 0 -0 -0 -0 0 -0 -0 0 0 0 -0 0 0 0 0 -0 -0
0 0 0 -0 0 -0 0 -0 0 -0 -0 0 -0 0 0 0 0 0 0 0 0 -0 0 0 -0 0 0 0 -0 -0 0 -0 -0 -0 -0 0 -0 -0 -0 -0 -0 -0 -0
0 0 0 0 -0 -0 -0 -0 -0 -0 0 0 -0 -0 0 0 0 -0 0 0 0 -0 -0 0 0 -0 0 0 0 0 -0 -0 -0 -0 -0 -0 -0 -0 -0 -0 -0 -0 -0
0 0 0 0 0 -0 0 -0 -0 -0 0 0 -0 -0 0 0 0 0 0 0 0 -0 0 0 -0 -0 -0 0 0 -0 -0 -0 0 -0 -0 -0 -0 -0 -0 -0 -0 -0 -0
0 0 0 0 -0 -0 -0 0 -0 0 0 0 -0 0 0 0 0 0 0 0 0 -0 0 -0 -0 -0 -0 -0 -0 -0 -0 -0 0 0 0 -0 -0 -0 -0 -0 -0 -0 -0
0 0 0 0 -0 -0 -0 -0 -0 -0 -0 0 0 0 0 0 0 0 0 0 0 -0 -0 0 0 -0 -0 0 0 0 0 -0 0 -0 -0 -0 -0 -0 -0 -0 -0 -0 -0
0 0 0 -0 -0 -0 -0 -0 0 -0 -0 0 -0 0 0 0 0 0 0 0 -0 -0 -0 -0 0 -0 0 0 0 0 0 0 0 0 -0 -0 -0 -0 -0 -0 -0 -0 -0
0 0 -0 -0 -0 0 0 0 0 -0 -0 -0 0 0 0 0 0 0 0 0 0 -0 -0 0 0 0 0 0 0 0 0 0 0 0 0 -0 -0 0 0 0 -0 -0 -0
0 0 -0 -0 -0 0 0 0 0 -0 -0 -0 0 0 0 0 0 0 0 0 -0 0 0 0 0 0 0 0 -0 -0 -0 -0 0 0 0 0 -0 -0 0 -0 0 -0 -0
0 0 -0 0 0 -0 0 0 -0 -0 -0 0 0 0 0 0 0 0 0 0 0 -0 -0 -0 -0 -0 0 0 -0 -0 -0 -0 -0 0 -0 0 0 -0 -0 -0 -0 -0 -0
0 0 0 0 0 0 0 0 -0 0 0 0 0 0 0 0 0 0 0 0 -0 -0 -0 0 -0 -0 0 0 0 -0 -0 -0 -0 -0 -0 -0 0 0 -0 -0 -0 -0 0
0 0 0 0 0 0 0 0 0 -0 -0 -0 0 -0 0 -0 0 0 0 -0 -0 -0 -0 -0 0 -0 -0 0 -0 0 -0 0 0 -0 -0 -0 0 0 0 -0 -0 -0 -0
0 0 0 0 0 0 0 0 -0 -0 -0 -0 -0 0 -0 0 -0 -0 0 -0 -0 -0 -0 0 0 -0 -0 -0 -0 0 0 -0 -0 -0 -0 0 -0 0 0 0 0 -0 -0
0 0 0 0 0 0 0 0 -0 -0 0 -0 -0 -0 -0 -0 -0 -0 0 0 -0 0 0 -0 -0 -0 -0 -0 0 0 -0 -0 -0 -0 -0 -0 0 0 0 0 0 0 0
0 0 0 0 0 0 0 0 0 -0 -0 -0 -0 -0 -0 -0 -0 -0 0 0 0 0 0 -0 -0 -0 -0 -0 0 0 -0 -0 -0 -0 0 0 0 0 -0 -0 -0 -0 0
0 0 0 -0 -0 -0 -0 -0 -0 -0 -0 -0 -0 -0 0 -0 0 -0 -0 0 0 0 -0 0 -0 -0 -0 -0 -0 -0 0 0 -0 0 0 0 0 -0 -0 -0 -0 -0 -0
0 0 -0 -0 -0 -0 -0 -0 -0 -0 -0 -0 -0 -0 -0 0 0 -0 -0 0 0 -0 0 0 0 0 -0 0 0 0 0 0 0 0 0 0 0 -0 -0 -0 -0 -0 -0
-0 -0 -0 -0 -0 -0 -0 -0 -0 -0 -0 -0 -0 -0 -0 0 0 0 -0 0 0 0 0 0 0 -0 -0 0 0 0 0 0 0 0 0 0 0 0 0 0 -0 -0 -0
0 -0 -0 -0 -0 -0 -0 -0 -0 -0 -0 -0 0 -0 0 0 0 0 0 0 0 0 0 0 0 0 -0 0 0 0 0 0 0 0 0 0 0 0 0 0 0 0 0
Wind_Speed_500mb
26 22 22 20 18 19 17 18 19 16 15 14 11 9 8 10 12 14 16 15 13 12 12 9 13 16 22 24 28 28 28 33 32 33 35 36 37 38 40 40 39 34 38
32 23 23 20 16 19 19 16 18 17 14 15 13 12 10 9 11 12 13 13 12 15 13 13 18 22 27 27 27 28 30 31 31 33 33 33 34 36 40 39 39 36 36
30 24 21 19 16 15 18 16 16 18 15 17 14 12 12 10 10 16 17 18 19 16 17 19 22 28 29 29 29 30 32 29 27 39 40 25 26 32 34 33 33 33 32
29 20 15 18 16 18 15 14 14 14 14 13 12 13 13 15 15 16 17 19 19 17 18 22 26 28 30 28 28 27 28 28 30 37 28 23 20 29 31 32 31 31 31
29 25 19 21 19 19 15 14 15 15 15 13 13 15 16 16 14 15 14 14 17 18 18 18 21 24 26 24 26 25 23 22 29 28 24 24 18 22 26 26 28 29 29
26 23 20 23 20 18 13 12 15 16 14 12 14 11 14 13 11 13 12 11 12 15 16 18 19 21 25 24 23 21 21 23 30 19 19 28 21 20 27 25 27 25 27
26 23 20 23 18 18 16 13 14 16 15 14 14 15 15 11 10 8 7 10 11 13 13 16 18 18 20 24 22 21 20 25 20 19 17 17 17 20 22 22 22 22 23
27 25 20 24 21 17 18 14 17 15 14 13 15 14 5 9 9 10 7 6 10 14 12 14 16 19 20 23 26 19 17 24 19 18 17 18 16 17 19 20 19 21 21
28 25 21 17 20 19 14 15 14 14 13 12 13 11 11 11 11 10 13 9 12 12 12 15 17 19 20 18 19 12 17 22 15 16 13 15 18 19 19 19 18 19 18
28 24 24 21 16 15 8 11 11 11 11 10 5 0 5 11 23 19 11 8 11 12 10 13 17 17 15 14 15 14 17 20 16 14 16 21 18 21 17 13 17 17 17
28 26 25 25 21 21 21 7 6 7 9 8 2 5 7 8 7 21 15 13 14 14 13 12 15 17 16 13 12 13 17 15 16 14 15 20 19 19 19 16 15 14 14
28 28 26 25 21 19 13 11 8 7 4 4 6 7 14 15 4 9 13 17 16 15 17 14 12 11 14 8 5 8 9 17 15 12 14 17 17 17 17 15 16 15 14
28 27 25 24 24 21 13 9 6 3 0 2 6 10 13 15 11 5 5 14 22 17 16 13 11 8 12 14 13 11 11 14 24 14 20 17 17 18 18 16 18 18 16
29 28 26 24 23 19 13 10 8 4 5 3 8 14 16 13 10 8 7 12 23 19 18 20 14 15 12 13 14 13 8 10 9 12 21 16 17 18 18 17 19 21 19
27 27 26 24 24 20 17 12 9 6 7 5 7 10 12 13 10 8 7 8 22 28 22 17 17 13 13 11 10 15 14 14 13 12 14 22 18 21 21 22 21 21 23
26 25 25 23 24 19 16 13 8 7 7 6 7 11 11 9 11 10 7 6 14 24 27 23 22 17 14 14 14 12 17 19 18 18 16 19 21 21 25 25 24 23 24
25 23 24 22 19 18 13 12 9 8 6 5 8 11 10 8 10 10 8 5 8 17 24 25 26 22 17 17 17 13 15 20 17 16 18 19 23 27 28 31 33 33 31
24 24 22 19 17 15 13 11 8 8 5 6 7 8 9 10 8 7 7 3 6 11 14 20 21 22 18 17 16 15 16 13 18 18 18 18 19 21 27 34 37 38 43
23 22 20 16 16 13 14 12 10 10 9 9 7 12 10 11 12 11 7 4 4 10 12 16 21 21 18 19 17 17 16 17 18 17 20 22 22 21 23 30 31 38 41
26 24 18 15 16 15 14 16 13 11 9 9 7 8 10 9 11 13 10 5 2 6 13 13 14 18 18 20 18 18 18 20 20 20 24 28 24 29 26 27 30 33 39
25 23 19 18 15 13 14 15 13 11 9 8 8 9 12 11 11 10 12 8 4 6 14 14 13 15 18 20 17 20 19 23 25 23 26 24 33 36 34 30 32 30 34
28 26 25 23 23 22 19 17 15 11 10 10 8 11 6 8 11 8 6 7 6 2 9 14 18 16 19 20 16 18 14 13 16 20 24 36 34 26 30 33 35 35 35
32 31 28 23 20 20 23 22 21 16 16 10 9 6 8 9 9 10 8 5 5 1 7 13 17 20 17 19 23 15 6 3 15 13 12 15 16 29 26 28 33 35 33
30 25 25 27 28 22 21 25 25 18 15 13 9 10 8 14 11 10 10 7 4 3 8 13 16 19 22 22 19 21 21 21 12 10 7 7 10 13 19 24 25 29 32
26 24 23 23 18 25 25 24 23 23 19 15 13 11 9 8 7 7 8 8 7 1 9 11 17 18 20 22 24 16 17 19 18 16 15 10 12 12 13 18 23 24 27
26 25 22 19 11 11 20 25 26 25 22 18 15 12 9 10 9 7 9 11 13 12 9 9 15 21 23 26 26 27 24 20 20 18 21 18 17 14 12 14 14 22 24
Wind_Direction_500mb
157 154 139 138 141 142 131 133 137 146 158 159 153 151 138 135 121 131 139 146 132 123 123 116 118 126 126 115 113 113 112 111 114 113 110 114 116 116 112 104 99 123 119
150 149 140 136 138 148 143 137 136 137 153 149 147 137 125 128 133 129 132 138 135 123 112 102 116 133 125 116 111 117 117 115 116 116 111 110 115 120 117 117 134 125 122
144 147 137 139 140 142 146 139 135 133 139 128 127 128 130 127 115 125 117 121 121 115 113 109 110 127 125 121 115 110 117 117 126 103 92 99 113 119 124 132 130 127 130
143 133 140 136 138 137 149 141 130 132 133 135 126 132 122 123 120 121 120 121 120 121 116 114 115 122 123 124 123 121 120 123 113 104 108 110 115 120 126 130 128 130 135
143 140 171 139 131 137 147 144 133 127 137 134 128 119 123 128 130 136 122 114 127 120 116 121 123 128 129 129 128 125 124 122 107 102 127 121 122 127 127 129 126 126 123
147 138 159 135 134 136 141 137 141 136 132 128 117 114 108 108 113 137 139 133 121 127 122 123 129 130 134 137 134 132 134 124 98 121 118 134 136 137 131 132 137 137 135
150 150 146 139 138 133 120 117 132 129 133 130 122 116 119 116 128 143 147 137 142 128 127 133 133 139 141 140 140 134 131 124 128 128 141 128 155 137 137 146 142 133 139
151 148 159 146 140 141 129 129 123 124 127 126 118 119 148 143 144 148 151 155 155 151 145 138 138 146 145 146 143 134 133 127 132 145 149 135 187 157 158 157 150 153 142
155 154 150 147 148 142 139 127 121 119 118 123 142 150 219 216 204 161 152 172 170 158 148 143 144 143 140 147 159 155 151 137 157 163 144 154 173 157 159 162 160 160 160
155 156 156 158 151 145 147 146 124 121 122 138 150 123 261 266 223 238 170 173 187 176 167 159 163 162 148 139 155 159 165 146 147 155 154 197 183 150 152 163 160 157 158
162 166 165 161 167 180 160 188 150 114 123 134 221 14 346 6 138 195 201 177 184 185 176 169 169 171 169 160 147 160 152 157 171 161 178 187 174 169 171 175 173 171 178
173 172 177 168 173 176 180 186 183 185 201 119 36 27 18 25 56 199 194 201 191 190 192 186 172 170 141 182 190 157 167 176 177 195 197 196 184 180 180 182 187 189 188
174 176 177 176 174 186 174 187 168 192 112 341 342 352 346 353 5 322 260 203 206 200 205 189 182 147 193 181 194 186 209 198 213 197 223 207 202 196 195 199 200 201 199
171 172 176 186 181 180 191 193 199 200 243 258 284 319 325 312 329 311 275 221 207 197 214 171 206 199 187 196 197 207 185 198 222 207 235 221 219 215 207 217 212 213 217
166 167 172 178 182 178 178 198 216 238 287 305 309 286 296 315 317 319 277 238 210 192 204 208 205 210 211 203 216 217 204 213 217 208 227 256 233 223 217 218 225 225 228
161 167 170 175 174 177 184 209 224 255 268 293 293 288 322 314 314 311 293 268 222 210 193 208 212 213 213 210 219 216 223 218 236 224 229 258 250 235 227 225 227 233 234
165 173 178 170 183 187 207 226 252 263 273 287 318 330 354 348 333 328 311 277 224 213 208 204 211 213 210 219 221 238 224 221 238 237 230 239 261 250 232 226 223 226 224
179 187 181 187 191 211 224 238 236 240 237 276 319 313 360 4 349 336 355 308 187 201 208 208 211 211 218 226 232 235 237 236 232 241 250 247 246 243 258 241 233 229 227
184 189 185 194 200 209 226 218 239 252 262 265 292 310 347 355 355 347 4 18 191 193 199 203 208 210 214 221 224 237 235 234 245 249 248 250 248 235 233 259 255 243 241
197 200 192 208 227 234 226 235 236 252 260 254 262 296 329 321 333 344 353 358 136 208 208 189 205 208 201 214 215 238 243 240 244 248 244 246 251 246 248 238 258 257 249
203 209 223 231 236 248 236 233 238 238 231 238 258 302 314 314 320 330 346 349 356 190 194 197 193 208 207 212 220 242 245 253 251 249 264 257 258 261 243 244 242 244 256
218 226 233 242 252 254 234 228 226 226 225 227 249 280 341 300 307 320 317 342 351 227 204 204 193 199 202 213 218 234 249 240 246 260 248 249 261 273 251 246 243 249 246
228 232 237 245 251 249 225 232 235 230 229 246 267 290 280 306 295 285 291 321 328 211 228 212 206 201 213 217 219 221 244 225 296 217 246 254 284 258 250 248 243 242 243
224 230 236 246 253 245 240 228 220 214 220 226 237 264 271 287 281 272 285 300 354 235 228 220 216 212 212 227 221 232 239 255 261 289 260 260 272 272 245 246 250 246 241
219 233 239 245 261 227 238 230 232 217 227 228 241 253 271 291 282 275 255 263 282 7 273 226 226 227 236 231 223 237 241 244 256 239 261 268 298 283 250 252 240 240 242
220 226 223 231 240 240 231 224 228 221 221 224 237 246 270 269 284 303 270 265 258 258 259 256 239 237 232 238 249 246 246 253 272 255 257 270 277 262 266 262 242 237 240
Wind_Speed_850mb
26 22 22 20 18 19 17 18 19 16 15 14 11 9 8 10 12 14 16 15 13 12 12 9 13 16 22 24 28 28 28 33 32 33 35 36 37 38 40 40 39 34 38
32 23 23 20 16 19 19 16 18 17 14 15 13 12 10 9 11 12 13 13 12 15 13 13 18 22 27 27 27 28 30 31 31 33 33 33 34 36 40 39 39 36 36
30 24 21 19 16 15 18 16 16 18 15 17 14 12 12 10 10 16 17 18 19 16 17 19 22 28 29 29 29 30 32 29 27 39 40 25 26 32 34 33 33 33 32
29 20 15 18 16 18 15 14 14 14 14 13 12 13 13 15 15 16 17 19 19 17 18 22 26 28 30 28 28 27 28 28 30 37 28 23 20 29 31 32 31 31 31
29 25 19 21 19 19 15 14 15 15 15 13 13 15 16 16 14 15 14 14 17 18 18 18 21 24 26 24 26 25 23 22 29 28 24 24 18 22 26 26 28 29 29
26 23 20 23 20 18 13 12 15 16 14 12 14 11 14 13 11 13 12 11 12 15 16 18 19 21 25 24 23 21 21 23 30 19 19 28 21 20 27 25 27 25 27
26 23 20 23 18 18 16 13 14 16 15 14 14 15 15 11 10 8 7 10 11 13 13 16 18 18 20 24 22 21 20 25 20 19 17 17 17 20 22 22 22 22 23
27 25 20 24 21 17 18 14 17 15 14 13 15 14 5 9 9 10 7 6 10 14 12 14 16 19 20 23 26 19 17 24 19 18 17 18 16 17 19 20 19 21 21
28 25 21 17 20 19 14 15 14 14 13 12 13 11 11 11 11 10 13 9 12 12 12 15 17 19 20 18 19 12 17 22 15 16 13 15 18 19 19 19 18 19 18
28 24 24 21 16 15 8 11 11 11 11 10 5 0 5 11 23 19 11 8 11 12 10 13 17 17 15 14 15 14 17 20 16 14 16 21 18 21 17 13 17 17 17
28 26 25 25 21 21 21 7 6 7 9 8 2 5 7 8 7 21 15 13 14 14 13 12 15 17 16 13 12 13 17 15 16 14 15 20 19 19 19 16 15 14 14
28 28 26 25 21 19 13 11 8 7 4 4 6 7 14 15 4 9 13 17 16 15 17 14 12 11 14 8 5 8 9 17 15 12 14 17 17 17 17 15 16 15 14
28 27 25 24 24 21 13 9 6 3 0 2 6 10 13 15 11 5 5 14 22 17 16 13 11 8 12 14 13 11 11 14 24 14 20 17 17 18 18 16 18 18 16
29 28 26 24 23 19 13 10 8 4 5 3 8 14 16 13 10 8 7 12 23 19 18 20 14 15 12 13 14 13 8 10 9 12 21 16 17 18 18 17 19 21 19
27 27 26 24 24 20 17 12 9 6 7 5 7 10 12 13 10 8 7 8 22 28 22 17 17 13 13 11 10 15 14 14 13 12 14 22 18 21 21 22 21 21 23
26 25 25 23 24 19 16 13 8 7 7 6 7 11 11 9 11 10 7 6 14 24 27 23 22 17 14 14 14 12 17 19 18 18 16 19 21 21 25 25 24 23 24
25 23 24 22 19 18 13 12 9 8 6 5 8 11 10 8 10 10 8 5 8 17 24 25 26 22 17 17 17 13 15 20 17 16 18 19 23 27 28 31 33 33 31
24 24 22 19 17 15 13 11 8 8 5 6 7 8 9 10 8 7 7 3 6 11 14 20 21 22 18 17 16 15 16 13 18 18 18 18 19 21 27 34 37 38 43
23 22 20 16 16 13 14 12 10 10 9 9 7 12 10 11 12 11 7 4 4 10 12 16 21 21 18 19 17 17 16 17 18 17 20 22 22 21 23 30 31 38 41
26 24 18 15 16 15 14 16 13 11 9 9 7 8 10 9 11 13 10 5 2 6 13 13 14 18 18 20 18 18 18 20 20 20 24 28 24 29 26 27 30 33 39
25 23 19 18 15 13 14 15 13 11 9 8 8 9 12 11 11 10 12 8 4 6 14 14 13 15 18 20 17 20 19 23 25 23 26 24 33 36 34 30 32 30 34
28 26 25 23 23 22 19 17 15 11 10 10 8 11 6 8 11 8 6 7 6 2 9 14 18 16 19 20 16 18 14 13 16 20 24 36 34 26 30 33 35 35 35
32 31 28 23 20 20 23 22 21 16 16 10 9 6 8 9 9 10 8 5 5 1 7 13 17 20 17 19 23 15 6 3 15 13 12 15 16 29 26 28 33 35 33
30 25 25 27 28 22 21 25 25 18 15 13 9 10 8 14 11 10 10 7 4 3 8 13 16 19 22 22 19 21 21 21 12 10 7 7 10 13 19 24 25 29 32
26 24 23 23 18 25 25 24 23 23 19 15 13 11 9 8 7 7 8 8 7 1 9 11 17 18 20 22 24 16 17 19 18 16 15 10 12 12 13 18 23 24 27
26 25 22 19 11 11 20 25 26 25 22 18 15 12 9 10 9 7 9 11 13 12 9 9 15 21 23 26 26 27 24 20 20 18 21 18 17 14 12 14 14 22 24
Wind_Direction_850mb
157 154 139 138 141 142 131 133 137 146 158 159 153 151 138 135 121 131 139 146 132 123 123 116 118 126 126 115 113 113 112 111 114 113 110 114 116 116 112 104 99 123 119
150 149 140 136 138 148 143 137 136 137 153 149 147 137 125 128 133 129 132 138 135 123 112 102 116 133 125 116 111 117 117 115 116 116 111 110 115 120 117 117 134 125 122
144 147 137 139 140 142 146 139 135 133 139 128 127 128 130 127 115 125 117 121 121 115 113 109 110 127 125 121 115 110 117 117 126 103 92 99 113 119 124 132 130 127 130
143 133 140 136 138 137 149 141 130 132 133 135 126 132 122 123 120 121 120 121 120 121 116 114 115 122 123 124 123 121 120 123 113 104 108 110 115 120 126 130 128 130 135
143 140 171 139 131 137 147 144 133 127 137 134 128 119 123 128 130 136 122 114 127 120 116 121 123 128 129 129 128 125 124 122 107 102 127 121 122 127 127 129 126 126 123
147 138 159 135 134 136 141 137 141 136 132 128 117 114 108 108 113 137 139 133 121 127 122 123 129 130 134 137 134 132 134 124 98 121 118 134 136 137 131 132 137 137 135
150 150 146 139 138 133 120 117 132 129 133 130 122 116 119 116 128 143 147 137 142 128 127 133 133 139 141 140 140 134 131 124 128 128 141 128 155 137 137 146 142 133 139
151 148 159 146 140 141 129 129 123 124 127 126 118 119 148 143 144 148 151 155 155 151 145 138 138 146 145 146 143 134 133 127 132 145 149 135 187 157 158 157 150 153 142
155 154 150 147 148 142 139 127 121 119 118 123 142 150 219 216 204 161 152 172 170 158 148 143 144 143 140 147 159 155 151 137 157 163 144 154 173 157 159 162 160 160 160
155 156 156 158 151 145 147 146 124 121 122 138 150 123 261 266 223 238 170 173 187 176 167 159 163 162 148 139 155 159 165 146 147 155 154 197 183 150 152 163 160 157 158
162 166 165 161 167 180 160 188 150 114 123 134 221 14 346 6 138 195 201 177 184 185 176 169 169 171 169 160 147 160 152 157 171 161 178 187 174 169 171 175 173 171 178
173 172 177 168 173 176 180 186 183 185 201 119 36 27 18 25 56 199 194 201 191 190 192 186 172 170 141 182 190 157 167 176 177 195 197 196 184 180 180 182 187 189 188
174 176 177 176 174 186 174 187 168 192 112 341 342 352 346 353 5 322 260 203 206 200 205 189 182 147 193 181 194 186 209 198 213 197 223 207 202 196 195 199 200 201 199
171 172 176 186 181 180 191 193 199 200 243 258 284 319 325 312 329 311 275 221 207 197 214 171 206 199 187 196 197 207 185 198 222 207 235 221 219 215 207 217 212 213 217
166 167 172 178 182 178 178 198 216 238 287 305 309 286 296 315 317 319 277 238 210 192 204 208 205 210 211 203 216 217 204 213 217 208 227 256 233 223 217 218 225 225 228
161 167 170 175 174 177 184 209 224 255 268 293 293 288 322 314 314 311 293 268 222 210 193 208 212 213 213 210 219 216 223 218 236 224 229 258 250 235 227 225 227 233 234
165 173 178 170 183 187 207 226 252 263 273 287 318 330 354 348 333 328 311 277 224 213 208 204 211 213 210 219 221 238 224 221 238 237 230 239 261 250 232 226 223 226 224
179 187 181 187 191 211 224 238 236 240 237 276 319 313 360 4 349 336 355 308 187 201 208 208 211 211 218 226 232 235 237 236 232 241 250 247 246 243 258 241 233 229 227
184 189 185 194 200 209 226 218 239 252 262 265 292 310 347 355 355 347 4 18 191 193 199 203 208 210 214 221 224 237 235 234 245 249 248 250 248 235 233 259 255 243 241
197 200 192 208 227 234 226 235 236 252 260 254 262 296 329 321 333 344 353 358 136 208 208 189 205 208 201 214 215 238 243 240 244 248 244 246 251 246 248 238 258 257 249
203 209 223 231 236 248 236 233 238 238 231 238 258 302 314 314 320 330 346 349 356 190 194 197 193 208 207 212 220 242 245 253 251 249 264 257 258 261 243 244 242 244 256
218 226 233 242 252 254 234 228 226 226 225 227 249 280 341 300 307 320 317 342 351 227 204 204 193 199 202 213 218 234 249 240 246 260 248 249 261 273 251 246 243 249 246
228 232 237 245 251 249 225 232 235 230 229 246 267 290 280 306 295 285 291 321 328 211 228 212 206 201 213 217 219 221 244 225 296 217 246 254 284 258 250 248 243 242 243
224 230 236 246 253 245 240 228 220 214 220 226 237 264 271 287 281 272 285 300 354 235 228 220 216 212 212 227 221 232 239 255 261 289 260 260 272 272 245 246 250 246 241
219 233 239 245 261 227 238 230 232 217 227 228 241 253 271 291 282 275 255 263 282 7 273 226 226 227 236 231 223 237 241 244 256 239 261 268 298 283 250 252 240 240 242
220 226 223 231 240 240 231 224 228 221 221 224 237 246 270 269 284 303 270 265 258 258 259 256 239 237 232 238 249 246 246 253 272 255 257 270 277 262 266 262 242 237 240